�������l�o���
Date,Time,MP-1(��Sv/h),MP-2(��Sv/h),MP-3(��Sv/h),MP-4(��Sv/h),MP-5(��Sv/h),MP-6(��Sv/h),MP-7(��Sv/h),MP-8(��Sv/h),����,����(m/s),���J
2024/06/28,00:00,0.507,0.778,0.489,0.971,0.709,0.318,0.553,0.513,��,5.9,��
2024/06/28,00:10,0.507,0.778,0.490,0.969,0.711,0.316,0.555,0.513,��,5.1,��
2024/06/28,00:20,0.508,0.778,0.488,0.970,0.712,0.317,0.555,0.512,��,5.7,��
2024/06/28,00:30,0.507,0.778,0.491,0.971,0.711,0.316,0.554,0.514,��,5.1,��
2024/06/28,00:40,0.508,0.778,0.490,0.969,0.710,0.317,0.555,0.513,��,5.3,��
2024/06/28,00:50,0.506,0.779,0.491,0.968,0.711,0.316,0.555,0.512,��,4.7,��
2024/06/28,01:00,0.508,0.777,0.491,0.970,0.710,0.316,0.556,0.512,��,3.6,��
2024/06/28,01:10,0.508,0.779,0.489,0.970,0.710,0.317,0.556,0.513,��쐼,4.0,��
2024/06/28,01:20,0.507,0.778,0.490,0.972,0.712,0.316,0.554,0.512,��쐼,0.9,��
2024/06/28,01:30,0.506,0.779,0.490,0.971,0.713,0.316,0.558,0.512,��,2.5,��
2024/06/28,01:40,0.507,0.779,0.489,0.971,0.711,0.317,0.555,0.511,��쐼,1.7,��
2024/06/28,01:50,0.508,0.781,0.489,0.972,0.713,0.317,0.555,0.512,��,2.6,��
2024/06/28,02:00,0.508,0.778,0.489,0.972,0.710,0.317,0.556,0.514,��쐼,3.0,��
2024/06/28,02:10,0.507,0.779,0.491,0.969,0.711,0.317,0.557,0.514,�쐼,3.0,��
2024/06/28,02:20,0.509,0.779,0.490,0.970,0.710,0.318,0.554,0.513,��쐼,2.9,��
2024/06/28,02:30,0.509,0.779,0.490,0.970,0.709,0.317,0.556,0.514,��쐼,2.9,��
2024/06/28,02:40,0.509,0.779,0.489,0.967,0.712,0.316,0.558,0.512,�쐼,2.0,��
2024/06/28,02:50,0.509,0.778,0.491,0.968,0.711,0.318,0.558,0.513,�쐼,1.5,��
2024/06/28,03:00,0.507,0.778,0.490,0.972,0.711,0.318,0.556,0.513,�쐼,1.4,��
2024/06/28,03:10,0.507,0.778,0.490,0.972,0.712,0.318,0.556,0.513,���쐼,0.9,��
2024/06/28,03:20,0.507,0.778,0.493,0.969,0.713,0.318,0.557,0.513,��,0.9,��
2024/06/28,03:30,0.508,0.777,0.490,0.971,0.711,0.317,0.558,0.513,��,0.6,��
2024/06/28,03:40,0.509,0.779,0.489,0.970,0.711,0.316,0.557,0.513,-,CALM,��
2024/06/28,03:50,0.508,0.781,0.490,0.971,0.711,0.318,0.557,0.513,�쓌,0.9,��
2024/06/28,04:00,0.508,0.779,0.489,0.969,0.711,0.317,0.557,0.513,-,CALM,��
2024/06/28,04:10,0.508,0.780,0.490,0.969,0.709,0.318,0.558,0.513,-,CALM,��
2024/06/28,04:20,0.506,0.779,0.489,0.973,0.712,0.318,0.556,0.513,�쓌,0.8,��
2024/06/28,04:30,0.508,0.779,0.491,0.971,0.712,0.318,0.559,0.513,���쓌,1.2,��
2024/06/28,04:40,0.507,0.779,0.491,0.968,0.710,0.317,0.558,0.513,-,CALM,��
2024/06/28,04:50,0.506,0.779,0.490,0.969,0.712,0.318,0.557,0.512,-,CALM,��
2024/06/28,05:00,0.510,0.779,0.491,0.970,0.712,0.318,0.558,0.513,�k,0.9,��
2024/06/28,05:10,0.509,0.778,0.489,0.970,0.713,0.317,0.558,0.512,�k�k��,0.9,��
2024/06/28,05:20,0.507,0.778,0.490,0.970,0.711,0.318,0.557,0.512,�k,0.6,��
2024/06/28,05:30,0.507,0.780,0.489,0.970,0.711,0.317,0.559,0.514,-,CALM,��
2024/06/28,05:40,0.508,0.778,0.491,0.970,0.712,0.317,0.559,0.513,-,CALM,��
2024/06/28,05:50,0.508,0.777,0.491,0.972,0.709,0.318,0.557,0.514,-,CALM,��
2024/06/28,06:00,0.508,0.780,0.489,0.973,0.714,0.316,0.557,0.514,�쓌,0.6,��
2024/06/28,06:10,0.509,0.780,0.492,0.969,0.711,0.316,0.557,0.513,��쐼,0.6,��
2024/06/28,06:20,0.509,0.780,0.490,0.972,0.712,0.316,0.558,0.513,-,CALM,��
2024/06/28,06:30,0.508,0.782,0.492,0.973,0.713,0.319,0.558,0.512,��쓌,0.6,��
2024/06/28,06:40,0.509,0.779,0.491,0.973,0.710,0.316,0.557,0.513,-,CALM,��
2024/06/28,06:50,0.508,0.779,0.490,0.972,0.712,0.316,0.556,0.512,��,0.9,��
2024/06/28,07:00,0.507,0.782,0.490,0.971,0.710,0.316,0.559,0.514,��쓌,0.8,��
2024/06/28,07:10,0.507,0.780,0.491,0.972,0.712,0.315,0.557,0.514,��쓌,1.5,��
2024/06/28,07:20,0.507,0.779,0.489,0.972,0.710,0.315,0.558,0.514,��쓌,0.8,��
2024/06/28,07:30,0.505,0.777,0.491,0.971,0.711,0.317,0.557,0.513,�쓌,0.6,��
2024/06/28,07:40,0.508,0.777,0.491,0.972,0.712,0.317,0.556,0.513,�쓌,0.6,��
2024/06/28,07:50,0.507,0.776,0.490,0.970,0.712,0.316,0.556,0.512,�k��,0.9,��
2024/06/28,08:00,0.508,0.779,0.490,0.971,0.711,0.317,0.555,0.511,��,1.1,��
2024/06/28,08:10,0.507,0.778,0.492,0.969,0.712,0.315,0.555,0.513,��,1.2,��
2024/06/28,08:20,0.506,0.777,0.490,0.970,0.711,0.316,0.556,0.514,��,1.4,��
2024/06/28,08:30,0.507,0.778,0.491,0.971,0.710,0.316,0.556,0.511,���쓌,2.0,��
2024/06/28,08:40,0.507,0.775,0.490,0.971,0.711,0.316,0.556,0.511,���쓌,0.9,��
2024/06/28,08:50,0.506,0.777,0.488,0.970,0.711,0.317,0.556,0.512,���쓌,0.6,��
2024/06/28,09:00,0.508,0.776,0.489,0.971,0.713,0.318,0.557,0.511,��쓌,2.3,��
2024/06/28,09:10,0.508,0.779,0.490,0.972,0.713,0.316,0.555,0.511,��쓌,4.7,��
2024/06/28,09:20,0.507,0.777,0.492,0.971,0.713,0.316,0.556,0.511,��쓌,4.2,��
2024/06/28,09:30,0.505,0.777,0.490,0.970,0.713,0.316,0.557,0.510,��,5.2,��
2024/06/28,09:40,0.505,0.777,0.489,0.972,0.712,0.316,0.555,0.509,��,6.6,��
2024/06/28,09:50,0.506,0.775,0.489,0.970,0.711,0.316,0.555,0.510,��,5.7,��
2024/06/28,10:00,0.507,0.775,0.490,0.971,0.711,0.315,0.554,0.511,��,5.0,��
2024/06/28,10:10,0.508,0.777,0.490,0.970,0.710,0.316,0.556,0.511,��,4.6,��
2024/06/28,10:20,0.507,0.777,0.488,0.972,0.710,0.316,0.555,0.510,��,3.9,��
2024/06/28,10:30,0.507,0.777,0.490,0.970,0.711,0.316,0.554,0.509,��,7.6,��
2024/06/28,10:40,0.506,0.776,0.489,0.971,0.708,0.315,0.555,0.511,��,5.8,��
2024/06/28,10:50,0.507,0.775,0.489,0.970,0.709,0.315,0.554,0.510,��,5.5,��
2024/06/28,11:00,0.506,0.775,0.489,0.971,0.710,0.316,0.556,0.511,��쓌,4.0,��
2024/06/28,11:10,0.506,0.771,0.490,0.970,0.709,0.315,0.556,0.511,��,3.3,��
2024/06/28,11:20,0.506,0.774,0.490,0.970,0.712,0.315,0.555,0.511,��쓌,8.3,��
2024/06/28,11:30,0.506,0.776,0.488,0.971,0.711,0.316,0.554,0.510,��쓌,8.3,�L
2024/06/28,11:40,0.506,0.777,0.490,0.967,0.710,0.315,0.556,0.513,��쓌,7.6,�L
2024/06/28,11:50,0.506,0.776,0.491,0.970,0.710,0.315,0.552,0.512,��,6.4,�L
2024/06/28,12:00,0.506,0.776,0.490,0.968,0.710,0.315,0.554,0.512,��,5.2,�L
2024/06/28,12:10,0.505,0.775,0.491,0.971,0.710,0.316,0.555,0.512,��쓌,4.4,�L
2024/06/28,12:20,0.504,0.775,0.489,0.971,0.710,0.316,0.555,0.511,��,5.0,�L
2024/06/28,12:30,0.504,0.774,0.490,0.970,0.707,0.316,0.554,0.511,��,5.6,�L
2024/06/28,12:40,0.505,0.774,0.486,0.969,0.706,0.315,0.554,0.511,��,5.8,�L
2024/06/28,12:50,0.504,0.774,0.488,0.970,0.707,0.315,0.553,0.510,��쓌,7.8,�L
2024/06/28,13:00,0.503,0.772,0.487,0.971,0.705,0.317,0.555,0.510,��쓌,6.9,�L
2024/06/28,13:10,0.502,0.771,0.487,0.967,0.704,0.316,0.553,0.508,��쓌,7.4,�L
2024/06/28,13:20,0.503,0.770,0.485,0.968,0.704,0.314,0.552,0.509,��,6.9,�L
2024/06/28,13:30,0.501,0.769,0.485,0.967,0.706,0.315,0.553,0.509,��쓌,6.7,�L
2024/06/28,13:40,0.502,0.767,0.484,0.968,0.705,0.315,0.553,0.508,��쓌,6.2,�L
2024/06/28,13:50,0.502,0.769,0.487,0.970,0.704,0.314,0.551,0.508,��쓌,5.8,�L
2024/06/28,14:00,0.503,0.768,0.486,0.969,0.702,0.314,0.551,0.509,��쓌,6.0,�L
2024/06/28,14:10,0.502,0.769,0.484,0.965,0.703,0.316,0.550,0.510,��쓌,5.6,�L
2024/06/28,14:20,0.501,0.767,0.485,0.969,0.703,0.315,0.551,0.509,��쓌,5.8,�L
2024/06/28,14:30,0.501,0.768,0.484,0.966,0.703,0.315,0.551,0.509,��쓌,6.6,�L
2024/06/28,14:40,0.501,0.765,0.483,0.966,0.700,0.315,0.551,0.509,��쓌,6.1,�L
2024/06/28,14:50,0.500,0.766,0.483,0.966,0.700,0.315,0.549,0.508,��쓌,6.5,�L
2024/06/28,15:00,0.500,0.766,0.483,0.965,0.700,0.314,0.549,0.508,��쓌,5.8,�L
2024/06/28,15:10,0.499,0.765,0.481,0.967,0.697,0.313,0.551,0.508,��쓌,5.5,�L
2024/06/28,15:20,0.500,0.765,0.485,0.966,0.698,0.314,0.550,0.509,��쓌,5.3,�L
2024/06/28,15:30,0.498,0.764,0.483,0.965,0.699,0.315,0.550,0.507,��쓌,5.6,�L
2024/06/28,15:40,0.499,0.763,0.482,0.965,0.698,0.315,0.550,0.506,��쓌,4.9,�L
2024/06/28,15:50,0.498,0.761,0.482,0.961,0.695,0.314,0.549,0.507,��쓌,4.1,�L
2024/06/28,16:00,0.498,0.759,0.482,0.961,0.696,0.314,0.549,0.506,��쓌,3.3,�L
2024/06/28,16:10,0.498,0.761,0.481,0.960,0.697,0.313,0.548,0.508,��쓌,2.2,�L
2024/06/28,16:20,0.497,0.759,0.481,0.960,0.696,0.314,0.549,0.506,�쓌,1.5,�L
2024/06/28,16:30,0.499,0.759,0.482,0.962,0.695,0.314,0.549,0.507,�쓌,1.2,�L
2024/06/28,16:40,0.498,0.762,0.482,0.962,0.695,0.314,0.548,0.506,���k��,0.9,�L
2024/06/28,16:50,0.495,0.760,0.481,0.960,0.694,0.314,0.550,0.507,�k��,0.6,�L
2024/06/28,17:00,0.496,0.761,0.482,0.958,0.695,0.313,0.549,0.508,��,0.9,�L
2024/06/28,17:10,0.496,0.764,0.480,0.961,0.695,0.312,0.549,0.507,�k��,1.4,�L
2024/06/28,17:20,0.495,0.763,0.480,0.961,0.695,0.313,0.550,0.507,�k�k��,2.0,�L
2024/06/28,17:30,0.496,0.761,0.481,0.959,0.692,0.313,0.550,0.507,�k,2.6,�L
2024/06/28,17:40,0.496,0.760,0.481,0.959,0.695,0.313,0.551,0.508,�k�k��,2.8,�L
2024/06/28,17:50,0.495,0.761,0.482,0.960,0.692,0.312,0.550,0.507,�k,3.0,�L
2024/06/28,18:00,0.496,0.761,0.480,0.957,0.692,0.312,0.551,0.507,�k�k��,2.6,�L
2024/06/28,18:10,0.493,0.757,0.481,0.957,0.694,0.313,0.550,0.507,�k��,2.6,�L
2024/06/28,18:20,0.488,0.749,0.476,0.944,0.690,0.314,0.549,0.506,�k�k��,3.2,�L
2024/06/28,18:30,0.488,0.748,0.475,0.939,0.687,0.313,0.548,0.505,�k�k��,4.1,��
2024/06/28,18:40,0.488,0.747,0.475,0.938,0.689,0.312,0.548,0.507,�k�k��,3.8,��
2024/06/28,18:50,0.490,0.747,0.474,0.939,0.689,0.312,0.547,0.507,�k�k��,3.7,�L
2024/06/28,19:00,0.488,0.747,0.474,0.938,0.688,0.312,0.548,0.507,�k�k��,3.7,��
2024/06/28,19:10,0.489,0.745,0.474,0.937,0.687,0.312,0.551,0.508,�k�k��,1.7,�L
2024/06/28,19:20,0.488,0.748,0.475,0.938,0.686,0.312,0.550,0.505,�k�k��,1.4,�L
2024/06/28,19:30,0.486,0.748,0.473,0.937,0.688,0.312,0.550,0.507,�k�k��,3.0,�L
2024/06/28,19:40,0.488,0.748,0.474,0.938,0.685,0.312,0.549,0.505,�k�k��,2.3,�L
2024/06/28,19:50,0.485,0.745,0.474,0.938,0.686,0.311,0.549,0.505,�k�k��,4.0,�L
2024/06/28,20:00,0.487,0.748,0.475,0.938,0.685,0.312,0.549,0.507,�k�k��,3.6,��
2024/06/28,20:10,0.486,0.748,0.475,0.938,0.686,0.312,0.548,0.505,�k,2.8,��
2024/06/28,20:20,0.485,0.748,0.475,0.937,0.685,0.311,0.550,0.506,�k,2.9,��
2024/06/28,20:30,0.487,0.746,0.475,0.936,0.687,0.313,0.550,0.507,�k,2.9,��
2024/06/28,20:40,0.486,0.748,0.475,0.939,0.690,0.313,0.550,0.508,�k�k��,3.4,��
2024/06/28,20:50,0.487,0.748,0.475,0.939,0.690,0.312,0.550,0.508,�k�k��,3.8,��
2024/06/28,21:00,0.488,0.746,0.476,0.937,0.688,0.310,0.550,0.507,�k,3.7,��
2024/06/28,21:10,0.487,0.748,0.473,0.938,0.690,0.311,0.550,0.508,�k�k��,2.9,��
2024/06/28,21:20,0.487,0.746,0.473,0.937,0.687,0.311,0.551,0.508,�k�k��,3.0,��
2024/06/28,21:30,0.487,0.747,0.473,0.937,0.688,0.312,0.550,0.510,�k�k��,3.9,��
2024/06/28,21:40,0.485,0.747,0.476,0.938,0.688,0.312,0.551,0.508,�k�k��,3.9,��
2024/06/28,21:50,0.486,0.747,0.474,0.935,0.688,0.312,0.551,0.508,�k�k��,3.4,��
2024/06/28,22:00,0.487,0.748,0.474,0.938,0.688,0.312,0.550,0.507,�k�k��,3.9,��
2024/06/28,22:10,0.487,0.748,0.475,0.936,0.688,0.313,0.551,0.508,�k�k��,4.7,��
2024/06/28,22:20,0.489,0.749,0.476,0.937,0.689,0.312,0.550,0.507,�k�k��,4.5,��
2024/06/28,22:30,0.487,0.747,0.475,0.938,0.687,0.311,0.550,0.508,�k�k��,3.6,�L
2024/06/28,22:40,0.487,0.747,0.475,0.937,0.687,0.311,0.550,0.508,�k,2.0,�L
2024/06/28,22:50,0.488,0.749,0.475,0.939,0.689,0.312,0.550,0.507,�k�k��,2.3,�L
2024/06/28,23:00,0.487,0.749,0.474,0.934,0.691,0.312,0.550,0.506,�k�k��,3.4,��
2024/06/28,23:10,0.487,0.747,0.477,0.937,0.689,0.313,0.548,0.506,�k,4.8,��
2024/06/28,23:20,0.487,0.747,0.475,0.938,0.688,0.312,0.547,0.506,�k,4.3,��
2024/06/28,23:30,0.488,0.748,0.476,0.939,0.689,0.313,0.549,0.506,�k,3.7,��
2024/06/28,23:40,0.487,0.747,0.478,0.938,0.691,0.312,0.548,0.506,�k,3.6,��
2024/06/28,23:50,0.487,0.748,0.476,0.936,0.689,0.313,0.550,0.507,�k,5.1,�L
